Location: Detroit
(42.3310°N, 83.0460°W)
Time: 01:09:46
(UTC-04:00)

A-11 Canister half - Pass Details

Date: 07 February 2023
Orbit: 1526 x 1682 km, 47.3° (Epoch: 20 March)

Event Time Altitude Azimuth Distance (km) Brightness Sun altitude
Rises 12:36:38 0° 295° (WNW) 4,719 11.3 32.4°
Reaches altitude 10° 12:40:04 10° 286° (WNW) 3,751 11.0 32.4°
Maximum altitude 12:48:04 32° 228° (SW) 2,481 11.1 32.4°
Drops below altitude 10° 12:56:16 10° 170° (S) 3,842 12.5 32.4°
Sets 12:59:52 0° 161° (SSE) 4,849 12.5 32.4°
